owner,sensor,date,latitude,longitude,vertical_datum,wind_speed,wind_to_direction,wind_speed_of_gust,qcFlag 
LOOP,urn:ioos:station:wmo:lopl1:1,2015-08-01T00:16:00Z,28.8850,-90.0250,10.0,1.5,157.0,2.2,'11111222,11111222,11111222' 
LOOP,urn:ioos:station:wmo:lopl1:1,2015-08-01T00:31:00Z,28.8850,-90.0250,10.0,0.3,132.0,0.8,'11111222,11111222,11111222' 
LOOP,urn:ioos:station:wmo:lopl1:1,2015-08-01T00:46:00Z,28.8850,-90.0250,10.0,0.7,108.0,1.2,'11111222,11111222,11111222' 
LOOP,urn:ioos:station:wmo:lopl1:1,2015-08-01T01:01:00Z,28.8850,-90.0250,10.0,0.7,4.0,1.3,'11111222,11111222,11111222' 
LOOP,urn:ioos:station:wmo:lopl1:1,2015-08-01T01:16:00Z,28.8850,-90.0250,10.0,1.6,212.0,2.4,'11111222,11111222,11111222' 
LOOP,urn:ioos:station:wmo:lopl1:1,2015-08-01T01:31:00Z,28.8850,-90.0250,10.0,1.8,234.0,3.1,'11111222,11111222,11111222' 
LOOP,urn:ioos:station:wmo:lopl1:1,2015-08-01T01:46:00Z,28.8850,-90.0250,10.0,0.8,273.0,1.7,'11111222,11111222,11111222' 
LOOP,urn:ioos:station:wmo:lopl1:1,2015-08-01T02:01:00Z,28.8850,-90.0250,10.0,2.5,219.0,3.1,'11111222,11111222,11111222' 
LOOP,urn:ioos:station:wmo:lopl1:1,2015-08-01T02:16:00Z,28.8850,-90.0250,10.0,3.7,250.0,5.2,'11111222,11111222,11111222' 
LOOP,urn:ioos:station:wmo:lopl1:1,2015-08-01T02:31:00Z,28.8850,-90.0250,10.0,1.1,183.0,2.0,'11111222,11111222,11111222' 
LOOP,urn:ioos:station:wmo:lopl1:1,2015-08-01T02:46:00Z,28.8850,-90.0250,10.0,1.1,92.0,4.2,'11111222,11111222,11111222' 
LOOP,urn:ioos:station:wmo:lopl1:1,2015-08-01T03:01:00Z,28.8850,-90.0250,10.0,2.5,322.0,2.5,'11111222,11111222,11111222' 
LOOP,urn:ioos:station:wmo:lopl1:1,2015-08-01T03:16:00Z,28.8850,-90.0250,10.0,7.2,326.0,10.6,'11111222,11111222,11111222' 
LOOP,urn:ioos:station:wmo:lopl1:1,2015-08-01T03:31:00Z,28.8850,-90.0250,10.0,7.0,309.0,9.2,'11111222,11111222,11111222' 
LOOP,urn:ioos:station:wmo:lopl1:1,2015-08-01T03:46:00Z,28.8850,-90.0250,10.0,5.7,320.0,8.3,'11111222,11111222,11111222' 
LOOP,urn:ioos:station:wmo:lopl1:1,2015-08-01T04:01:00Z,28.8850,-90.0250,10.0,10.3,315.0,13.6,'11111222,11111222,11111222' 
LOOP,urn:ioos:station:wmo:lopl1:1,2015-08-01T04:26:00Z,28.8850,-90.0250,10.0,9.8,304.0,11.7,'11111222,11111222,11111222' 
LOOP,urn:ioos:station:wmo:lopl1:1,2015-08-01T04:41:00Z,28.8850,-90.0250,10.0,7.2,273.0,8.6,'11111222,11111222,11111222' 
LOOP,urn:ioos:station:wmo:lopl1:1,2015-08-01T04:56:00Z,28.8850,-90.0250,10.0,5.8,65.0,18.5,'11111222,11111222,11111222' 
LOOP,urn:ioos:station:wmo:lopl1:1,2015-08-01T05:11:00Z,28.8850,-90.0250,10.0,99.0,78.0,99.0,'11144222,11111222,11144222' 
LOOP,urn:ioos:station:wmo:lopl1:1,2015-08-01T05:26:00Z,28.8850,-90.0250,10.0,8.2,139.0,9.6,'11111222,11111222,11111222' 
LOOP,urn:ioos:station:wmo:lopl1:1,2015-08-01T05:51:00Z,28.8850,-90.0250,10.0,2.0,68.0,2.8,'11111222,11111222,11111222' 
LOOP,urn:ioos:station:wmo:lopl1:1,2015-08-01T06:06:00Z,28.8850,-90.0250,10.0,3.2,77.0,4.0,'11111222,11111222,11111222' 
LOOP,urn:ioos:station:wmo:lopl1:1,2015-08-01T06:26:00Z,28.8850,-90.0250,10.0,0.9,23.0,1.6,'11111222,11111222,11111222' 
LOOP,urn:ioos:station:wmo:lopl1:1,2015-08-01T06:41:00Z,28.8850,-90.0250,10.0,1.0,238.0,1.9,'11111222,11111222,11111222' 
LOOP,urn:ioos:station:wmo:lopl1:1,2015-08-01T06:56:00Z,28.8850,-90.0250,10.0,1.9,27.0,4.2,'11111222,11111222,11111222' 
LOOP,urn:ioos:station:wmo:lopl1:1,2015-08-01T07:11:00Z,28.8850,-90.0250,10.0,4.7,28.0,6.1,'11111222,11111222,11111222' 
LOOP,urn:ioos:station:wmo:lopl1:1,2015-08-01T07:26:00Z,28.8850,-90.0250,10.0,5.0,63.0,7.2,'11111222,11111222,11111222' 
LOOP,urn:ioos:station:wmo:lopl1:1,2015-08-01T07:41:00Z,28.8850,-90.0250,10.0,7.5,66.0,9.6,'11111222,11111222,11111222' 
LOOP,urn:ioos:station:wmo:lopl1:1,2015-08-01T07:56:00Z,28.8850,-90.0250,10.0,6.6,75.0,8.2,'11111222,11111222,11111222' 
LOOP,urn:ioos:station:wmo:lopl1:1,2015-08-01T08:11:00Z,28.8850,-90.0250,10.0,5.3,70.0,6.2,'11111222,11111222,11111222' 
LOOP,urn:ioos:station:wmo:lopl1:1,2015-08-01T08:26:00Z,28.8850,-90.0250,10.0,4.2,63.0,5.3,'11111222,11111222,11111222' 
LOOP,urn:ioos:station:wmo:lopl1:1,2015-08-01T08:41:00Z,28.8850,-90.0250,10.0,4.6,69.0,6.4,'11111222,11111222,11111222' 
LOOP,urn:ioos:station:wmo:lopl1:1,2015-08-01T08:56:00Z,28.8850,-90.0250,10.0,4.6,86.0,5.5,'11111222,11111222,11111222' 
LOOP,urn:ioos:station:wmo:lopl1:1,2015-08-01T09:11:00Z,28.8850,-90.0250,10.0,3.8,69.0,4.6,'11111222,11111222,11111222' 
LOOP,urn:ioos:station:wmo:lopl1:1,2015-08-01T09:26:00Z,28.8850,-90.0250,10.0,4.8,77.0,6.5,'11111222,11111222,11111222' 
LOOP,urn:ioos:station:wmo:lopl1:1,2015-08-01T09:41:00Z,28.8850,-90.0250,10.0,4.0,80.0,5.0,'11111222,11111222,11111222' 
LOOP,urn:ioos:station:wmo:lopl1:1,2015-08-01T09:56:00Z,28.8850,-90.0250,10.0,3.8,71.0,4.7,'11111222,11111222,11111222' 
LOOP,urn:ioos:station:wmo:lopl1:1,2015-08-01T10:16:00Z,28.8850,-90.0250,10.0,1.9,93.0,3.0,'11111222,11111222,11111222' 
LOOP,urn:ioos:station:wmo:lopl1:1,2015-08-01T10:31:00Z,28.8850,-90.0250,10.0,1.7,80.0,2.3,'11111222,11111222,11111222' 
LOOP,urn:ioos:station:wmo:lopl1:1,2015-08-01T11:06:00Z,28.8850,-90.0250,10.0,1.8,94.0,2.3,'11111222,11111222,11111222' 
LOOP,urn:ioos:station:wmo:lopl1:1,2015-08-01T11:21:00Z,28.8850,-90.0250,10.0,1.0,124.0,1.9,'11111222,11111222,11111222' 
LOOP,urn:ioos:station:wmo:lopl1:1,2015-08-01T11:36:00Z,28.8850,-90.0250,10.0,1.8,65.0,2.6,'11111222,11111222,11111222' 
LOOP,urn:ioos:station:wmo:lopl1:1,2015-08-01T11:51:00Z,28.8850,-90.0250,10.0,2.3,85.0,3.0,'11111222,11111222,11111222' 
LOOP,urn:ioos:station:wmo:lopl1:1,2015-08-01T12:06:00Z,28.8850,-90.0250,10.0,2.9,91.0,4.0,'11111222,11111222,11111222' 
LOOP,urn:ioos:station:wmo:lopl1:1,2015-08-01T12:21:00Z,28.8850,-90.0250,10.0,3.5,106.0,4.2,'11111222,11111222,11111222' 
LOOP,urn:ioos:station:wmo:lopl1:1,2015-08-01T12:36:00Z,28.8850,-90.0250,10.0,1.6,77.0,2.8,'11111222,11111222,11111222' 
LOOP,urn:ioos:station:wmo:lopl1:1,2015-08-01T12:51:00Z,28.8850,-90.0250,10.0,3.3,22.0,4.5,'11111222,11111222,11111222' 
LOOP,urn:ioos:station:wmo:lopl1:1,2015-08-01T13:06:00Z,28.8850,-90.0250,10.0,4.1,7.0,5.4,'11111222,11111222,11111222' 
LOOP,urn:ioos:station:wmo:lopl1:1,2015-08-01T13:21:00Z,28.8850,-90.0250,10.0,1.9,17.0,3.2,'11111222,11111222,11111222' 
LOOP,urn:ioos:station:wmo:lopl1:1,2015-08-01T13:36:00Z,28.8850,-90.0250,10.0,2.1,6.0,2.7,'11111222,11111222,11111222' 
LOOP,urn:ioos:station:wmo:lopl1:1,2015-08-01T14:01:00Z,28.8850,-90.0250,10.0,2.9,30.0,4.3,'11111222,11111222,11111222' 
LOOP,urn:ioos:station:wmo:lopl1:1,2015-08-01T14:16:00Z,28.8850,-90.0250,10.0,2.5,359.0,3.8,'11111222,11111222,11111222' 
LOOP,urn:ioos:station:wmo:lopl1:1,2015-08-01T14:31:00Z,28.8850,-90.0250,10.0,2.0,357.0,3.2,'11111222,11111222,11111222' 
LOOP,urn:ioos:station:wmo:lopl1:1,2015-08-01T14:56:00Z,28.8850,-90.0250,10.0,3.6,314.0,5.5,'11111222,11111222,11111222' 
LOOP,urn:ioos:station:wmo:lopl1:1,2015-08-01T15:11:00Z,28.8850,-90.0250,10.0,3.0,312.0,5.2,'11111222,11111222,11111222' 
LOOP,urn:ioos:station:wmo:lopl1:1,2015-08-01T15:26:00Z,28.8850,-90.0250,10.0,2.1,319.0,3.2,'11111222,11111222,11111222' 
LOOP,urn:ioos:station:wmo:lopl1:1,2015-08-01T15:41:00Z,28.8850,-90.0250,10.0,2.9,328.0,4.2,'11111222,11111222,11111222' 
LOOP,urn:ioos:station:wmo:lopl1:1,2015-08-01T15:56:00Z,28.8850,-90.0250,10.0,3.1,325.0,4.4,'11111222,11111222,11111222' 
LOOP,urn:ioos:station:wmo:lopl1:1,2015-08-01T16:11:00Z,28.8850,-90.0250,10.0,3.7,338.0,5.2,'11111222,11111222,11111222' 
LOOP,urn:ioos:station:wmo:lopl1:1,2015-08-01T16:26:00Z,28.8850,-90.0250,10.0,4.3,330.0,5.6,'11111222,11111222,11111222' 
LOOP,urn:ioos:station:wmo:lopl1:1,2015-08-01T16:41:00Z,28.8850,-90.0250,10.0,3.9,320.0,5.3,'11111222,11111222,11111222' 
LOOP,urn:ioos:station:wmo:lopl1:1,2015-08-01T16:56:00Z,28.8850,-90.0250,10.0,3.9,312.0,5.4,'11111222,11111222,11111222' 
LOOP,urn:ioos:station:wmo:lopl1:1,2015-08-01T17:11:00Z,28.8850,-90.0250,10.0,4.2,337.0,5.5,'11111222,11111222,11111222' 
LOOP,urn:ioos:station:wmo:lopl1:1,2015-08-01T17:26:00Z,28.8850,-90.0250,10.0,3.4,350.0,4.9,'11111222,11111222,11111222' 
LOOP,urn:ioos:station:wmo:lopl1:1,2015-08-01T17:41:00Z,28.8850,-90.0250,10.0,3.0,332.0,4.6,'11111222,11111222,11111222' 
LOOP,urn:ioos:station:wmo:lopl1:1,2015-08-01T17:56:00Z,28.8850,-90.0250,10.0,2.9,335.0,4.6,'11111222,11111222,11111222' 
LOOP,urn:ioos:station:wmo:lopl1:1,2015-08-01T18:11:00Z,28.8850,-90.0250,10.0,3.0,348.0,4.7,'11111222,11111222,11111222' 
LOOP,urn:ioos:station:wmo:lopl1:1,2015-08-01T18:26:00Z,28.8850,-90.0250,10.0,3.1,346.0,4.5,'11111222,11111222,11111222' 
LOOP,urn:ioos:station:wmo:lopl1:1,2015-08-01T18:41:00Z,28.8850,-90.0250,10.0,2.4,325.0,3.6,'11111222,11111222,11111222' 
LOOP,urn:ioos:station:wmo:lopl1:1,2015-08-01T18:56:00Z,28.8850,-90.0250,10.0,2.9,337.0,4.1,'11111222,11111222,11111222' 
LOOP,urn:ioos:station:wmo:lopl1:1,2015-08-01T19:11:00Z,28.8850,-90.0250,10.0,2.5,335.0,4.0,'11111222,11111222,11111222' 
LOOP,urn:ioos:station:wmo:lopl1:1,2015-08-01T19:26:00Z,28.8850,-90.0250,10.0,2.8,338.0,3.8,'11111222,11111222,11111222' 
LOOP,urn:ioos:station:wmo:lopl1:1,2015-08-01T19:51:00Z,28.8850,-90.0250,10.0,2.1,343.0,3.2,'11111222,11111222,11111222' 
LOOP,urn:ioos:station:wmo:lopl1:1,2015-08-01T20:01:00Z,28.8850,-90.0250,10.0,3.0,21.0,4.2,'11111222,11111222,11111222' 
LOOP,urn:ioos:station:wmo:lopl1:1,2015-08-01T20:16:00Z,28.8850,-90.0250,10.0,4.9,11.0,6.2,'11111222,11111222,11111222' 
LOOP,urn:ioos:station:wmo:lopl1:1,2015-08-01T20:31:00Z,28.8850,-90.0250,10.0,3.6,12.0,4.6,'11111222,11111222,11111222' 
LOOP,urn:ioos:station:wmo:lopl1:1,2015-08-01T20:46:00Z,28.8850,-90.0250,10.0,3.7,3.0,4.9,'11111222,11111222,11111222' 
LOOP,urn:ioos:station:wmo:lopl1:1,2015-08-01T21:01:00Z,28.8850,-90.0250,10.0,3.2,10.0,4.2,'11111222,11111222,11111222' 
LOOP,urn:ioos:station:wmo:lopl1:1,2015-08-01T21:16:00Z,28.8850,-90.0250,10.0,2.9,21.0,4.2,'11111222,11111222,11111222' 
LOOP,urn:ioos:station:wmo:lopl1:1,2015-08-01T21:31:00Z,28.8850,-90.0250,10.0,3.5,12.0,4.6,'11111222,11111222,11111222' 
LOOP,urn:ioos:station:wmo:lopl1:1,2015-08-01T21:46:00Z,28.8850,-90.0250,10.0,3.0,13.0,4.2,'11111222,11111222,11111222' 
LOOP,urn:ioos:station:wmo:lopl1:1,2015-08-01T22:01:00Z,28.8850,-90.0250,10.0,2.5,18.0,3.9,'11111222,11111222,11111222' 
LOOP,urn:ioos:station:wmo:lopl1:1,2015-08-01T22:16:00Z,28.8850,-90.0250,10.0,1.8,30.0,2.8,'11111222,11111222,11111222' 
LOOP,urn:ioos:station:wmo:lopl1:1,2015-08-01T22:31:00Z,28.8850,-90.0250,10.0,2.1,86.0,2.8,'11111222,11111222,11111222' 
LOOP,urn:ioos:station:wmo:lopl1:1,2015-08-01T22:46:00Z,28.8850,-90.0250,10.0,2.0,124.0,2.8,'11111222,11111222,11111222' 
LOOP,urn:ioos:station:wmo:lopl1:1,2015-08-01T23:01:00Z,28.8850,-90.0250,10.0,2.1,120.0,2.8,'11111222,11111222,11111222' 
LOOP,urn:ioos:station:wmo:lopl1:1,2015-08-01T23:16:00Z,28.8850,-90.0250,10.0,2.4,89.0,3.3,'11111222,11111222,11111222' 
LOOP,urn:ioos:station:wmo:lopl1:1,2015-08-01T23:31:00Z,28.8850,-90.0250,10.0,2.1,94.0,2.9,'11111222,11111222,11111222' 
LOOP,urn:ioos:station:wmo:lopl1:1,2015-08-01T23:46:00Z,28.8850,-90.0250,10.0,1.6,82.0,2.6,'11111222,11111222,11111222' 
LOOP,urn:ioos:station:wmo:lopl1:1,2015-08-02T00:01:00Z,28.8850,-90.0250,10.0,1.8,77.0,2.4,'11111222,11111222,11111222' 
LOOP,urn:ioos:station:wmo:lopl1:1,2015-08-02T00:16:00Z,28.8850,-90.0250,10.0,1.0,7.0,2.0,'11111222,11111222,11111222' 
LOOP,urn:ioos:station:wmo:lopl1:1,2015-08-02T00:31:00Z,28.8850,-90.0250,10.0,1.2,72.0,1.8,'11111222,11111222,11111222' 
LOOP,urn:ioos:station:wmo:lopl1:1,2015-08-02T00:56:00Z,28.8850,-90.0250,10.0,1.3,67.0,2.0,'11111222,11111222,11111222' 
LOOP,urn:ioos:station:wmo:lopl1:1,2015-08-02T01:11:00Z,28.8850,-90.0250,10.0,1.1,112.0,1.7,'11111222,11111222,11111222' 
LOOP,urn:ioos:station:wmo:lopl1:1,2015-08-02T01:26:00Z,28.8850,-90.0250,10.0,1.3,31.0,1.7,'11111222,11111222,11111222' 
LOOP,urn:ioos:station:wmo:lopl1:1,2015-08-02T01:41:00Z,28.8850,-90.0250,10.0,0.7,164.0,1.3,'11111222,11111222,11111222' 
LOOP,urn:ioos:station:wmo:lopl1:1,2015-08-02T02:01:00Z,28.8850,-90.0250,10.0,0.3,178.0,0.8,'11111222,11111222,11111222' 
LOOP,urn:ioos:station:wmo:lopl1:1,2015-08-02T02:16:00Z,28.8850,-90.0250,10.0,0.8,165.0,1.5,'11111222,11111222,11111222' 
LOOP,urn:ioos:station:wmo:lopl1:1,2015-08-02T02:31:00Z,28.8850,-90.0250,10.0,0.9,199.0,1.4,'11111222,11111222,11111222' 
LOOP,urn:ioos:station:wmo:lopl1:1,2015-08-02T02:46:00Z,28.8850,-90.0250,10.0,0.6,202.0,1.2,'11111222,11111222,11111222' 
LOOP,urn:ioos:station:wmo:lopl1:1,2015-08-02T03:01:00Z,28.8850,-90.0250,10.0,1.3,245.0,2.3,'11111222,11111222,11111222' 
LOOP,urn:ioos:station:wmo:lopl1:1,2015-08-02T03:16:00Z,28.8850,-90.0250,10.0,1.1,234.0,2.0,'11111222,11111222,11111222' 
LOOP,urn:ioos:station:wmo:lopl1:1,2015-08-02T03:31:00Z,28.8850,-90.0250,10.0,0.9,220.0,2.1,'11111222,11111222,11111222' 
LOOP,urn:ioos:station:wmo:lopl1:1,2015-08-02T03:46:00Z,28.8850,-90.0250,10.0,1.3,209.0,2.2,'11111222,11111222,11111222' 
LOOP,urn:ioos:station:wmo:lopl1:1,2015-08-02T04:01:00Z,28.8850,-90.0250,10.0,1.0,226.0,1.7,'11111222,11111222,11111222' 
LOOP,urn:ioos:station:wmo:lopl1:1,2015-08-02T04:16:00Z,28.8850,-90.0250,10.0,0.7,243.0,2.3,'11111222,11111222,11111222' 
LOOP,urn:ioos:station:wmo:lopl1:1,2015-08-02T04:31:00Z,28.8850,-90.0250,10.0,1.4,217.0,2.2,'11111222,11111222,11111222' 
LOOP,urn:ioos:station:wmo:lopl1:1,2015-08-02T04:46:00Z,28.8850,-90.0250,10.0,1.8,211.0,2.5,'11111222,11111222,11111222' 
LOOP,urn:ioos:station:wmo:lopl1:1,2015-08-02T05:01:00Z,28.8850,-90.0250,10.0,1.9,216.0,2.6,'11111222,11111222,11111222' 
LOOP,urn:ioos:station:wmo:lopl1:1,2015-08-02T05:16:00Z,28.8850,-90.0250,10.0,1.3,210.0,2.4,'11111222,11111222,11111222' 
LOOP,urn:ioos:station:wmo:lopl1:1,2015-08-02T05:31:00Z,28.8850,-90.0250,10.0,1.6,235.0,2.4,'11111222,11111222,11111222' 
LOOP,urn:ioos:station:wmo:lopl1:1,2015-08-02T05:46:00Z,28.8850,-90.0250,10.0,3.1,222.0,3.9,'11111222,11111222,11111222' 
LOOP,urn:ioos:station:wmo:lopl1:1,2015-08-02T06:01:00Z,28.8850,-90.0250,10.0,2.5,205.0,3.4,'11111222,11111222,11111222' 
LOOP,urn:ioos:station:wmo:lopl1:1,2015-08-02T06:16:00Z,28.8850,-90.0250,10.0,2.4,265.0,3.4,'11111222,11111222,11111222' 
LOOP,urn:ioos:station:wmo:lopl1:1,2015-08-02T06:36:00Z,28.8850,-90.0250,10.0,3.1,218.0,4.3,'11111222,11111222,11111222' 
LOOP,urn:ioos:station:wmo:lopl1:1,2015-08-02T06:51:00Z,28.8850,-90.0250,10.0,2.8,224.0,3.7,'11111222,11111222,11111222' 
LOOP,urn:ioos:station:wmo:lopl1:1,2015-08-02T07:06:00Z,28.8850,-90.0250,10.0,3.1,236.0,4.7,'11111222,11111222,11111222' 
LOOP,urn:ioos:station:wmo:lopl1:1,2015-08-02T07:21:00Z,28.8850,-90.0250,10.0,3.2,252.0,4.3,'11111222,11111222,11111222' 
LOOP,urn:ioos:station:wmo:lopl1:1,2015-08-02T07:36:00Z,28.8850,-90.0250,10.0,3.5,260.0,4.0,'11111222,11111222,11111222' 
LOOP,urn:ioos:station:wmo:lopl1:1,2015-08-02T07:51:00Z,28.8850,-90.0250,10.0,3.8,250.0,5.0,'11111222,11111222,11111222' 
LOOP,urn:ioos:station:wmo:lopl1:1,2015-08-02T08:06:00Z,28.8850,-90.0250,10.0,3.6,254.0,4.8,'11111222,11111222,11111222' 
LOOP,urn:ioos:station:wmo:lopl1:1,2015-08-02T08:21:00Z,28.8850,-90.0250,10.0,3.3,243.0,4.2,'11111222,11111222,11111222' 
LOOP,urn:ioos:station:wmo:lopl1:1,2015-08-02T08:36:00Z,28.8850,-90.0250,10.0,3.4,259.0,4.5,'11111222,11111222,11111222' 
LOOP,urn:ioos:station:wmo:lopl1:1,2015-08-02T08:51:00Z,28.8850,-90.0250,10.0,3.7,255.0,4.6,'11111222,11111222,11111222' 
LOOP,urn:ioos:station:wmo:lopl1:1,2015-08-02T09:16:00Z,28.8850,-90.0250,10.0,3.1,242.0,3.6,'11111222,11111222,11111222' 
LOOP,urn:ioos:station:wmo:lopl1:1,2015-08-02T09:31:00Z,28.8850,-90.0250,10.0,3.3,263.0,4.4,'11111222,11111222,11111222' 
LOOP,urn:ioos:station:wmo:lopl1:1,2015-08-02T09:46:00Z,28.8850,-90.0250,10.0,2.9,263.0,3.7,'11111222,11111222,11111222' 
LOOP,urn:ioos:station:wmo:lopl1:1,2015-08-02T10:01:00Z,28.8850,-90.0250,10.0,3.6,258.0,5.0,'11111222,11111222,11111222' 
LOOP,urn:ioos:station:wmo:lopl1:1,2015-08-02T10:16:00Z,28.8850,-90.0250,10.0,3.5,228.0,4.7,'11111222,11111222,11111222' 
LOOP,urn:ioos:station:wmo:lopl1:1,2015-08-02T10:31:00Z,28.8850,-90.0250,10.0,3.1,254.0,4.2,'11111222,11111222,11111222' 
LOOP,urn:ioos:station:wmo:lopl1:1,2015-08-02T10:46:00Z,28.8850,-90.0250,10.0,3.2,231.0,4.3,'11111222,11111222,11111222' 
LOOP,urn:ioos:station:wmo:lopl1:1,2015-08-02T11:01:00Z,28.8850,-90.0250,10.0,3.2,228.0,4.5,'11111222,11111222,11111222' 
LOOP,urn:ioos:station:wmo:lopl1:1,2015-08-02T11:16:00Z,28.8850,-90.0250,10.0,3.3,240.0,4.3,'11111222,11111222,11111222' 
LOOP,urn:ioos:station:wmo:lopl1:1,2015-08-02T11:31:00Z,28.8850,-90.0250,10.0,2.7,256.0,3.7,'11111222,11111222,11111222' 
LOOP,urn:ioos:station:wmo:lopl1:1,2015-08-02T11:46:00Z,28.8850,-90.0250,10.0,2.6,249.0,3.4,'11111222,11111222,11111222' 
LOOP,urn:ioos:station:wmo:lopl1:1,2015-08-02T12:01:00Z,28.8850,-90.0250,10.0,2.6,244.0,3.5,'11111222,11111222,11111222' 
LOOP,urn:ioos:station:wmo:lopl1:1,2015-08-02T12:16:00Z,28.8850,-90.0250,10.0,3.6,260.0,4.9,'11111222,11111222,11111222' 
LOOP,urn:ioos:station:wmo:lopl1:1,2015-08-02T12:31:00Z,28.8850,-90.0250,10.0,3.2,256.0,4.4,'11111222,11111222,11111222' 
LOOP,urn:ioos:station:wmo:lopl1:1,2015-08-02T12:46:00Z,28.8850,-90.0250,10.0,3.1,257.0,4.1,'11111222,11111222,11111222' 
LOOP,urn:ioos:station:wmo:lopl1:1,2015-08-02T13:01:00Z,28.8850,-90.0250,10.0,3.1,266.0,3.8,'11111222,11111222,11111222' 
LOOP,urn:ioos:station:wmo:lopl1:1,2015-08-02T13:16:00Z,28.8850,-90.0250,10.0,2.5,274.0,3.3,'11111222,11111222,11111222' 
LOOP,urn:ioos:station:wmo:lopl1:1,2015-08-02T13:31:00Z,28.8850,-90.0250,10.0,2.7,278.0,3.9,'11111222,11111222,11111222' 
LOOP,urn:ioos:station:wmo:lopl1:1,2015-08-02T13:46:00Z,28.8850,-90.0250,10.0,2.8,281.0,3.5,'11111222,11111222,11111222' 
LOOP,urn:ioos:station:wmo:lopl1:1,2015-08-02T14:01:00Z,28.8850,-90.0250,10.0,2.7,273.0,3.4,'11111222,11111222,11111222' 
LOOP,urn:ioos:station:wmo:lopl1:1,2015-08-02T14:16:00Z,28.8850,-90.0250,10.0,2.6,268.0,3.7,'11111222,11111222,11111222' 
LOOP,urn:ioos:station:wmo:lopl1:1,2015-08-02T14:31:00Z,28.8850,-90.0250,10.0,2.5,303.0,3.2,'11111222,11111222,11111222' 
LOOP,urn:ioos:station:wmo:lopl1:1,2015-08-02T14:46:00Z,28.8850,-90.0250,10.0,2.4,271.0,3.3,'11111222,11111222,11111222' 
LOOP,urn:ioos:station:wmo:lopl1:1,2015-08-02T15:01:00Z,28.8850,-90.0250,10.0,2.7,274.0,3.4,'11111222,11111222,11111222' 
LOOP,urn:ioos:station:wmo:lopl1:1,2015-08-02T15:16:00Z,28.8850,-90.0250,10.0,2.2,268.0,2.2,'11111222,11111222,11111222' 
LOOP,urn:ioos:station:wmo:lopl1:1,2015-08-02T15:31:00Z,28.8850,-90.0250,10.0,2.3,305.0,3.4,'11111222,11111222,11111222' 
LOOP,urn:ioos:station:wmo:lopl1:1,2015-08-02T15:46:00Z,28.8850,-90.0250,10.0,2.1,299.0,3.7,'11111222,11111222,11111222' 
LOOP,urn:ioos:station:wmo:lopl1:1,2015-08-02T16:01:00Z,28.8850,-90.0250,10.0,1.9,308.0,3.5,'11111222,11111222,11111222' 
LOOP,urn:ioos:station:wmo:lopl1:1,2015-08-02T16:21:00Z,28.8850,-90.0250,10.0,3.4,16.0,4.8,'11111222,11111222,11111222' 
LOOP,urn:ioos:station:wmo:lopl1:1,2015-08-02T16:36:00Z,28.8850,-90.0250,10.0,4.3,13.0,4.9,'11111222,11111222,11111222' 
LOOP,urn:ioos:station:wmo:lopl1:1,2015-08-02T16:51:00Z,28.8850,-90.0250,10.0,2.7,15.0,3.9,'11111222,11111222,11111222' 
LOOP,urn:ioos:station:wmo:lopl1:1,2015-08-02T17:16:00Z,28.8850,-90.0250,10.0,2.3,7.0,3.3,'11111222,11111222,11111222' 
LOOP,urn:ioos:station:wmo:lopl1:1,2015-08-02T17:31:00Z,28.8850,-90.0250,10.0,3.2,285.0,4.7,'11111222,11111222,11111222' 
LOOP,urn:ioos:station:wmo:lopl1:1,2015-08-02T17:46:00Z,28.8850,-90.0250,10.0,7.9,226.0,10.5,'11111222,11111222,11111222' 
LOOP,urn:ioos:station:wmo:lopl1:1,2015-08-02T18:01:00Z,28.8850,-90.0250,10.0,3.3,249.0,4.9,'11111222,11111222,11111222' 
LOOP,urn:ioos:station:wmo:lopl1:1,2015-08-02T18:16:00Z,28.8850,-90.0250,10.0,3.9,300.0,5.0,'11111222,11111222,11111222' 
LOOP,urn:ioos:station:wmo:lopl1:1,2015-08-02T18:31:00Z,28.8850,-90.0250,10.0,4.7,325.0,6.3,'11111222,11111222,11111222' 
LOOP,urn:ioos:station:wmo:lopl1:1,2015-08-02T18:46:00Z,28.8850,-90.0250,10.0,3.8,322.0,6.0,'11111222,11111222,11111222' 
LOOP,urn:ioos:station:wmo:lopl1:1,2015-08-02T19:01:00Z,28.8850,-90.0250,10.0,2.5,332.0,3.7,'11111222,11111222,11111222' 
LOOP,urn:ioos:station:wmo:lopl1:1,2015-08-02T19:16:00Z,28.8850,-90.0250,10.0,3.5,309.0,4.5,'11111222,11111222,11111222' 
LOOP,urn:ioos:station:wmo:lopl1:1,2015-08-02T19:31:00Z,28.8850,-90.0250,10.0,2.4,314.0,3.4,'11111222,11111222,11111222' 
LOOP,urn:ioos:station:wmo:lopl1:1,2015-08-02T19:46:00Z,28.8850,-90.0250,10.0,0.9,140.0,2.1,'11111222,11111222,11111222' 
LOOP,urn:ioos:station:wmo:lopl1:1,2015-08-02T20:01:00Z,28.8850,-90.0250,10.0,1.5,115.0,2.8,'11111222,11111222,11111222' 
LOOP,urn:ioos:station:wmo:lopl1:1,2015-08-02T20:16:00Z,28.8850,-90.0250,10.0,3.4,159.0,4.3,'11111222,11111222,11111222' 
LOOP,urn:ioos:station:wmo:lopl1:1,2015-08-02T20:31:00Z,28.8850,-90.0250,10.0,3.6,170.0,4.5,'11111222,11111222,11111222' 
LOOP,urn:ioos:station:wmo:lopl1:1,2015-08-02T20:46:00Z,28.8850,-90.0250,10.0,2.6,192.0,3.6,'11111222,11111222,11111222' 
LOOP,urn:ioos:station:wmo:lopl1:1,2015-08-02T21:01:00Z,28.8850,-90.0250,10.0,3.1,165.0,4.4,'11111222,11111222,11111222' 
LOOP,urn:ioos:station:wmo:lopl1:1,2015-08-02T21:16:00Z,28.8850,-90.0250,10.0,4.5,199.0,6.1,'11111222,11111222,11111222' 
LOOP,urn:ioos:station:wmo:lopl1:1,2015-08-02T21:31:00Z,28.8850,-90.0250,10.0,3.9,208.0,4.9,'11111222,11111222,11111222' 
LOOP,urn:ioos:station:wmo:lopl1:1,2015-08-02T21:51:00Z,28.8850,-90.0250,10.0,5.4,220.0,6.6,'11111222,11111222,11111222' 
LOOP,urn:ioos:station:wmo:lopl1:1,2015-08-02T22:06:00Z,28.8850,-90.0250,10.0,4.1,213.0,5.3,'11111222,11111222,11111222' 
LOOP,urn:ioos:station:wmo:lopl1:1,2015-08-02T22:21:00Z,28.8850,-90.0250,10.0,5.0,225.0,5.8,'11111222,11111222,11111222' 
LOOP,urn:ioos:station:wmo:lopl1:1,2015-08-02T22:46:00Z,28.8850,-90.0250,10.0,3.4,239.0,4.3,'11111222,11111222,11111222' 
LOOP,urn:ioos:station:wmo:lopl1:1,2015-08-02T23:01:00Z,28.8850,-90.0250,10.0,4.2,225.0,5.9,'11111222,11111222,11111222' 
LOOP,urn:ioos:station:wmo:lopl1:1,2015-08-02T23:16:00Z,28.8850,-90.0250,10.0,4.5,221.0,5.7,'11111222,11111222,11111222' 
LOOP,urn:ioos:station:wmo:lopl1:1,2015-08-02T23:31:00Z,28.8850,-90.0250,10.0,4.9,221.0,6.0,'11111222,11111222,11111222' 
LOOP,urn:ioos:station:wmo:lopl1:1,2015-08-02T23:46:00Z,28.8850,-90.0250,10.0,5.4,238.0,6.8,'11111222,11111222,11111222' 
LOOP,urn:ioos:station:wmo:lopl1:1,2015-08-03T00:01:00Z,28.8850,-90.0250,10.0,4.4,235.0,6.2,'11111222,11111222,11111222' 
LOOP,urn:ioos:station:wmo:lopl1:1,2015-08-03T00:16:00Z,28.8850,-90.0250,10.0,4.8,220.0,6.6,'11111222,11111222,11111222' 
LOOP,urn:ioos:station:wmo:lopl1:1,2015-08-03T00:31:00Z,28.8850,-90.0250,10.0,6.4,220.0,7.6,'11111222,11111222,11111222' 
LOOP,urn:ioos:station:wmo:lopl1:1,2015-08-03T00:46:00Z,28.8850,-90.0250,10.0,6.6,233.0,8.1,'11111222,11111222,11111222' 
LOOP,urn:ioos:station:wmo:lopl1:1,2015-08-03T01:01:00Z,28.8850,-90.0250,10.0,5.7,253.0,7.2,'11111222,11111222,11111222' 
LOOP,urn:ioos:station:wmo:lopl1:1,2015-08-03T01:16:00Z,28.8850,-90.0250,10.0,5.2,257.0,7.5,'11111222,11111222,11111222' 
LOOP,urn:ioos:station:wmo:lopl1:1,2015-08-03T01:31:00Z,28.8850,-90.0250,10.0,6.7,237.0,8.4,'11111222,11111222,11111222' 
LOOP,urn:ioos:station:wmo:lopl1:1,2015-08-03T01:46:00Z,28.8850,-90.0250,10.0,7.6,256.0,9.5,'11111222,11111222,11111222' 
LOOP,urn:ioos:station:wmo:lopl1:1,2015-08-03T02:01:00Z,28.8850,-90.0250,10.0,8.1,255.0,9.5,'11111222,11111222,11111222' 
LOOP,urn:ioos:station:wmo:lopl1:1,2015-08-03T02:16:00Z,28.8850,-90.0250,10.0,9.2,260.0,9.9,'11111222,11111222,11111222' 
LOOP,urn:ioos:station:wmo:lopl1:1,2015-08-03T02:31:00Z,28.8850,-90.0250,10.0,9.2,268.0,10.8,'11111222,11111222,11111222' 
LOOP,urn:ioos:station:wmo:lopl1:1,2015-08-03T02:46:00Z,28.8850,-90.0250,10.0,8.1,260.0,9.3,'11111222,11111222,11111222' 
LOOP,urn:ioos:station:wmo:lopl1:1,2015-08-03T03:01:00Z,28.8850,-90.0250,10.0,7.4,260.0,8.8,'11111222,11111222,11111222' 
LOOP,urn:ioos:station:wmo:lopl1:1,2015-08-03T03:16:00Z,28.8850,-90.0250,10.0,7.8,261.0,9.0,'11111222,11111222,11111222' 
LOOP,urn:ioos:station:wmo:lopl1:1,2015-08-03T03:31:00Z,28.8850,-90.0250,10.0,8.8,259.0,10.8,'11111222,11111222,11111222' 